Waarnemingen

Advertentie
Mijn weer
St. Mary's, Groot Brittannië (3803): temperatuur & dauwpunt: 08.12.2018 10:00:00 - 14.12.2018 10:00:00 (GMT)St. Mary's, Groot Brittannië (3803): temperatuur -20cm: 08.12.2018 10:00:00 - 14.12.2018 10:00:00 (GMT)St. Mary's, Groot Brittannië (3803): windsnelheid & windstoten: 08.12.2018 10:00:00 - 14.12.2018 10:00:00 (GMT)St. Mary's, Groot Brittannië (3803): windrichting: 08.12.2018 10:00:00 - 14.12.2018 10:00:00 (GMT)St. Mary's, Groot Brittannië (3803): luchtdruk: 08.12.2018 10:00:00 - 14.12.2018 10:00:00 (GMT)St. Mary's, Groot Brittannië (3803): zicht: 08.12.2018 10:00:00 - 14.12.2018 10:00:00 (GMT)St. Mary's, Groot Brittannië (3803): neerslag: 08.12.2018 10:00:00 - 14.12.2018 10:00:00 (GMT)
Datum & Tijd tt [°C] td [°C] tt -20cm [°C] ff [km/u] ff [kn] fx [km/u] fx [kn] dd ppp [hPa] vv [km] rr [mm]
14.12.2018 10:00:00 8,7 7,9 - 41 22 48 26 ZO 1017,1 7 0,2
14.12.2018 09:00:00 8,5 7,9 10,0 37 20 50 27 ZO 1017,3 9 0,6
14.12.2018 08:00:00 8,1 7,5 - 31 17 - - ZO 1016,9 5 0,4
14.12.2018 07:00:00 8,0 7,1 - 39 21 46 25 ZO 1016,2 7 0,2
14.12.2018 06:00:00 7,8 6,6 - 37 20 46 25 ZO 1015,8 4,9 0,2
14.12.2018 05:00:00 7,8 6,3 - 37 20 48 26 ZO 1015,9 3,3 0,2
14.12.2018 04:00:00 8,2 5,8 - 39 21 48 26 ZO 1015,9 14 0,0
14.12.2018 03:00:00 8,3 5,9 - 39 21 48 26 ZO 1015,8 10 0,0
14.12.2018 02:00:00 8,7 5,7 - 35 19 - - ZO 1015,4 18 0,0
14.12.2018 01:00:00 8,7 6,0 - 35 19 48 26 ZO 1015,4 13 0,0
14.12.2018 00:00:00 8,8 5,8 - 37 20 50 27 ZO 1014,8 16 0,0
13.12.2018 23:00:00 8,9 6,0 - 39 21 55 30 OZO 1014,1 14 0,0
13.12.2018 22:00:00 8,9 5,6 - 41 22 52 28 OZO 1013,8 14 0,0
13.12.2018 21:00:00 8,6 6,0 - 42 23 55 30 OZO 1013,3 20 0,0
13.12.2018 20:00:00 8,7 6,6 - 41 22 55 30 OZO 1012,6 12 0,0
13.12.2018 19:00:00 8,6 6,9 - 42 23 55 30 OZO 1011,8 8 0,2
13.12.2018 18:00:00 8,7 8,0 - 41 22 55 30 ZO 1010,8 4,8 0,0
13.12.2018 17:00:00 8,7 8,1 - 42 23 57 31 ZO 1009,8 6 0,2
13.12.2018 16:00:00 8,8 8,3 - 37 20 59 32 ZO 1008,9 2,5 0,4
13.12.2018 15:00:00 8,9 8,2 - 50 27 65 35 ZO 1007,9 2,0 0,8
13.12.2018 14:00:00 9,2 8,2 - 46 25 67 36 ZO 1006,7 3,5 0,4
13.12.2018 13:00:00 9,4 8,1 - 52 28 70 38 ZO 1006,1 9 0,0
13.12.2018 12:00:00 9,3 8,1 - 48 26 70 38 OZO 1005,5 8 0,0
13.12.2018 11:00:00 9,0 8,0 - 52 28 74 40 OZO 1004,8 6 0,2
13.12.2018 10:00:00 8,9 8,2 - 54 29 81 44 OZO 1004,1 4,0 0,6
13.12.2018 09:00:00 8,9 8,0 10,4 59 32 83 45 OZO 1003,0 3,5 0,0
13.12.2018 08:00:00 8,8 7,8 - 63 34 83 45 OZO 1002,3 4,0 0,4
13.12.2018 07:00:00 8,9 7,8 - 59 32 76 41 OZO 1001,8 4,8 2,0
13.12.2018 06:00:00 9,2 8,1 - 59 32 80 43 ZO 1001,7 5 1,6
13.12.2018 05:00:00 9,4 8,5 - 65 35 87 47 ZO 1001,7 4,6 2,0
13.12.2018 04:00:00 9,3 8,1 - 61 33 74 40 ZO 1002,0 3,5 1,4
13.12.2018 03:00:00 9,4 7,8 - 59 32 74 40 ZO 1002,5 6 1,0
13.12.2018 02:00:00 9,8 8,1 - 59 32 80 43 ZO 1002,9 9 0,2
13.12.2018 01:00:00 10,1 7,9 - 57 31 74 40 ZO 1003,5 11 0,0
13.12.2018 00:00:00 10,2 8,5 - 52 28 70 38 ZO 1004,3 11 0,0
12.12.2018 23:00:00 10,1 8,6 - 55 30 76 41 ZZO 1005,3 9 0,0
12.12.2018 22:00:00 10,2 8,2 - 55 30 72 39 ZZO 1006,3 10 0,0
12.12.2018 21:00:00 10,3 8,4 - 54 29 68 37 ZO 1007,0 10 0,0
12.12.2018 20:00:00 10,4 8,6 - 54 29 68 37 ZZO 1008,2 13 0,0
12.12.2018 19:00:00 10,8 8,0 - 52 28 61 33 ZZO 1008,7 18 0,0
12.12.2018 18:00:00 10,4 8,0 - 48 26 61 33 ZZO 1010,0 16 0,0
12.12.2018 17:00:00 10,5 7,9 - 44 24 55 30 ZZO 1010,8 10 0,0
12.12.2018 16:00:00 10,1 7,1 - 41 22 48 26 ZZO 1011,4 10 0,0
12.12.2018 15:00:00 9,9 7,0 - 37 20 - - ZZO 1012,4 10 0,0
12.12.2018 14:00:00 10,5 7,6 - 31 17 - - ZZO 1013,6 10 0,0
12.12.2018 13:00:00 10,3 6,8 - 24 13 - - ZZO 1014,4 45 0,0
12.12.2018 12:00:00 10,1 6,8 - 18 10 - - Z 1015,4 10 0,0
12.12.2018 11:00:00 10,0 6,1 - 13 7 - - Z 1016,5 10 0,0
12.12.2018 10:00:00 9,9 6,2 - 11 6 - - ZW 1017,0 10 0,0
12.12.2018 09:00:00 8,8 6,2 10,7 8 4 - - WZW 1017,2 10 0,0
12.12.2018 08:00:00 9,0 6,5 - 21 11 - - W 1017,7 10 0,0
12.12.2018 07:00:00 8,9 6,5 - 9 5 - - W 1017,6 30 0,0
12.12.2018 06:00:00 9,0 6,7 - 11 6 - - NW 1017,2 21 0,0
12.12.2018 05:00:00 9,8 6,9 - 21 11 - - WNW 1017,5 30 0,0
12.12.2018 04:00:00 9,8 7,0 - 21 11 - - WNW 1017,6 30 0,0
12.12.2018 03:00:00 9,9 7,8 - 18 10 - - WNW 1017,5 50 0,0
12.12.2018 02:00:00 10,2 8,5 - 21 11 - - WNW 1016,6 30 0,0
12.12.2018 01:00:00 10,0 8,2 - 21 11 - - WNW 1016,5 25 0,0
12.12.2018 00:00:00 10,0 8,7 - 22 12 70 38 WNW 1016,1 25 0,0
11.12.2018 23:00:00 10,7 9,7 - 18 10 - - WZW 1016,0 13 0,0
11.12.2018 22:00:00 10,8 9,6 - 24 13 - - Z 1015,6 16 0,0
11.12.2018 21:00:00 10,4 9,4 - 28 15 - - Z 1015,5 12 0,4
11.12.2018 20:00:00 10,5 9,7 - 24 13 - - Z 1015,7 12 0,2
11.12.2018 19:00:00 10,5 9,8 - 21 11 59 32 ZZW 1015,8 5 6,6
11.12.2018 18:00:00 11,1 10,6 - 48 26 61 33 Z 1015,2 3,0 2,0
11.12.2018 17:00:00 11,2 10,0 - 50 27 63 34 Z 1015,6 10 0,6
11.12.2018 16:00:00 11,4 9,5 - 46 25 61 33 Z 1016,1 9 0,0
11.12.2018 15:00:00 11,6 9,3 - 44 24 65 35 Z 1016,9 10 -
11.12.2018 14:00:00 11,5 8,8 - 48 26 67 36 Z 1017,5 10 0,0
11.12.2018 13:00:00 11,5 8,8 - 54 29 65 35 ZZO 1018,2 10 0,0
11.12.2018 12:00:00 11,3 9,3 - 46 25 59 32 ZZO 1019,1 10 0,0
11.12.2018 11:00:00 11,1 8,8 - 48 26 59 32 ZZO 1020,2 12 0,0
11.12.2018 10:00:00 11,2 8,6 - 48 26 59 32 ZZO 1020,2 10 0,0
11.12.2018 09:00:00 11,1 8,6 10,7 44 24 55 30 ZZO 1020,6 10 0,0
11.12.2018 08:00:00 11,0 8,4 - 42 23 52 28 ZZO 1020,6 10 0,0
11.12.2018 07:00:00 10,8 8,1 - 39 21 50 27 Z 1021,3 20 0,0
11.12.2018 06:00:00 10,6 7,7 - 37 20 46 25 Z 1021,9 23 0,0
11.12.2018 05:00:00 11,0 8,4 - 34 18 - - Z 1022,6 18 0,0
11.12.2018 04:00:00 10,8 8,2 - 31 17 - - Z 1023,3 19 0,0
11.12.2018 03:00:00 10,7 7,7 - 28 15 - - Z 1023,9 29 0,0
11.12.2018 02:00:00 10,7 7,9 - 28 15 - - Z 1024,7 20 0,0
11.12.2018 01:00:00 11,2 8,7 - 26 14 - - Z 1025,7 15 0,0
11.12.2018 00:00:00 11,3 9,0 - 24 13 - - Z 1026,6 15 0,0
10.12.2018 23:00:00 11,2 9,1 - 18 10 - - ZZW 1027,0 15 0,0
10.12.2018 22:00:00 11,3 9,6 - 21 11 - - Z 1027,6 11 0,0
10.12.2018 21:00:00 11,3 9,4 - 22 12 - - ZZW 1027,6 14 0,0
10.12.2018 20:00:00 11,3 9,3 - 22 12 - - Z 1027,8 12 0,0
10.12.2018 19:00:00 11,3 9,2 - 18 10 - - ZZW 1028,1 14 0,0
10.12.2018 18:00:00 11,1 8,8 - 24 13 - - ZZW 1028,1 14 0,0
10.12.2018 17:00:00 11,1 8,7 - 21 11 - - ZZW 1028,5 9 0,0
10.12.2018 16:00:00 11,0 8,4 - 15 8 - - ZW 1029,0 10 0,0
10.12.2018 15:00:00 11,2 8,4 - 16 9 - - WZW 1029,2 10 0,0
10.12.2018 14:00:00 11,6 8,7 - 22 12 - - ZW 1029,7 10 0,0
10.12.2018 13:00:00 11,4 8,8 - 22 12 - - ZW 1029,9 16 0,0
10.12.2018 12:00:00 11,4 8,8 - 18 10 - - ZW 1030,6 10 0,0
10.12.2018 11:00:00 11,3 8,3 - 18 10 - - ZW 1030,9 10 0,0
10.12.2018 10:00:00 10,8 8,0 - 16 9 - - ZW 1031,1 10 0,0
10.12.2018 09:00:00 10,5 7,6 10,2 13 7 - - WZW 1030,8 15 0,0
10.12.2018 08:00:00 10,3 7,3 - 16 9 - - W 1030,2 10 0,0
10.12.2018 07:00:00 10,0 6,7 - 15 8 - - W 1030,6 22 0,0
10.12.2018 06:00:00 10,1 6,4 - 16 9 - - W 1030,7 29 0,0
10.12.2018 05:00:00 10,1 6,4 - 22 12 - - W 1030,4 24 0,0
10.12.2018 04:00:00 9,7 6,4 - 21 11 - - W 1030,5 24 0,0
10.12.2018 03:00:00 9,8 6,2 - 22 12 - - WNW 1030,6 24 0,0
10.12.2018 02:00:00 9,9 5,9 - 24 13 - - WNW 1030,3 19 0,0
10.12.2018 01:00:00 9,9 6,5 - 22 12 - - WNW 1030,3 17 0,0
10.12.2018 00:00:00 10,2 5,7 - 26 14 - - WNW 1030,1 24 0,0
09.12.2018 23:00:00 10,2 6,5 - 24 13 - - WNW 1029,7 14 0,0
09.12.2018 22:00:00 10,2 6,0 - 28 15 48 26 NW 1029,5 14 0,0
09.12.2018 21:00:00 10,4 5,8 - 35 19 50 27 WNW 1029,1 20 0,0
09.12.2018 20:00:00 10,6 6,5 - 34 18 50 27 WNW 1028,6 13 0,0
09.12.2018 19:00:00 10,4 6,5 - 35 19 52 28 WNW 1027,8 14 0,0
09.12.2018 18:00:00 10,7 6,1 - 39 21 54 29 WNW 1026,8 14 0,0
09.12.2018 17:00:00 10,6 6,5 - 35 19 61 33 WNW 1026,1 13 0,0
09.12.2018 16:00:00 10,8 6,3 - 42 23 59 32 WNW 1025,3 12 0,0
09.12.2018 15:00:00 11,0 6,5 - 42 23 63 34 WNW 1024,2 12 0,0
09.12.2018 14:00:00 11,4 7,2 - 46 25 67 36 WNW 1023,5 12 0,0
09.12.2018 13:00:00 11,3 7,0 - 52 28 72 39 WNW 1022,5 13 0,0
09.12.2018 12:00:00 11,4 7,3 - 50 27 68 37 WNW 1021,6 13 0,0
09.12.2018 11:00:00 11,3 7,3 - 54 29 72 39 WNW 1020,8 11 0,0
09.12.2018 10:00:00 11,2 7,1 - 57 31 83 45 WNW 1019,3 9 0,0
09.12.2018 09:00:00 11,2 7,4 10,7 59 32 85 46 WNW 1018,0 9 0,0
09.12.2018 08:00:00 11,1 7,2 - 65 35 93 50 WNW 1016,4 9 0,0
09.12.2018 07:00:00 11,1 7,6 - 54 29 78 42 W 1015,0 10 0,0
09.12.2018 06:00:00 11,2 8,3 - 50 27 81 44 W 1013,7 8 0,0
09.12.2018 05:00:00 11,2 7,6 - 55 30 94 51 W 1012,9 7 0,0
09.12.2018 04:00:00 11,1 7,7 - 59 32 96 52 W 1012,5 8 0,0
09.12.2018 03:00:00 11,0 7,7 - 57 31 85 46 W 1012,1 7 0,0
09.12.2018 02:00:00 9,8 7,8 - 57 31 89 48 W 1011,6 7 0,0
09.12.2018 01:00:00 10,7 6,6 - 59 32 89 48 W 1011,2 9 0,0
09.12.2018 00:00:00 10,6 5,4 - 52 28 87 47 W 1010,9 12 0,0
08.12.2018 23:00:00 10,8 6,5 - 55 30 85 46 W 1010,6 8 0,0
08.12.2018 22:00:00 10,7 5,7 - 54 29 85 46 W 1010,1 9 0,0
08.12.2018 21:00:00 10,5 6,7 - 57 31 94 51 W 1009,7 11 0,0
08.12.2018 20:00:00 11,1 7,3 - 50 27 78 42 W 1009,1 8 0,0
08.12.2018 19:00:00 11,4 7,6 - 48 26 78 42 W 1009,1 8 0,0
08.12.2018 18:00:00 11,5 8,2 - 54 29 83 45 W 1008,7 7 0,0
08.12.2018 17:00:00 11,3 8,5 - 57 31 91 49 W 1008,5 8 0,2
08.12.2018 16:00:00 12,2 9,4 - 48 26 76 41 W 1008,5 7 0,0
08.12.2018 15:00:00 12,4 9,5 - 55 30 76 41 W 1008,5 7 0,0
08.12.2018 14:00:00 12,5 10,6 - 54 29 76 41 W 1008,7 7 0,0
08.12.2018 13:00:00 12,7 11,4 - 50 27 68 37 WZW 1008,9 7 0,0
08.12.2018 12:00:00 12,4 11,9 - 37 20 70 38 WZW 1009,4 10 0,2
08.12.2018 11:00:00 12,1 11,6 - 46 25 72 39 WZW 1010,2 8 0,0
08.12.2018 10:00:00 11,6 11,4 - 44 24 63 34 ZW 1010,8 2,5 0,2

tt = temperatuur
td = dauwpunt
tt -20cm = temperatuur -20cm
ff = windsnelheid
fx = windstoten
dd = windrichting
ppp = luchtdruk
vv = zicht
rr = neerslag

Weerstations in de omgeving